Theta_e
279 276 273 274 276 275 273 271 270 274 280 278 277 277 280 282 282 282 282 284 287 290 294 299 303 314 325 325 322 325 325 326 325 324 322 321 321 321 321 322 323 322 322 321
275 273 277 280 279 277 275 273 271 276 280 279 277 276 280 281 280 282 282 283 287 292 297 300 302 304 319 324 323 323 325 325 324 325 324 323 323 323 323 323 323 323 322 321
272 275 280 279 277 278 274 273 273 274 278 278 274 272 274 279 281 282 285 289 290 291 294 297 299 302 305 317 320 323 323 326 325 326 326 324 324 323 323 323 323 324 323 322
274 277 278 278 277 278 275 277 277 276 275 267 275 265 272 276 279 280 283 286 287 288 291 295 297 297 305 311 316 319 324 324 326 326 325 324 322 320 322 323 324 324 323 322
274 275 276 276 278 280 276 279 277 277 273 271 270 267 271 277 276 278 281 284 286 286 288 291 293 297 299 305 308 311 314 317 324 325 325 324 323 324 324 324 322 322 322 322
276 279 278 278 280 280 279 276 275 273 271 261 268 268 269 272 276 278 281 282 286 284 285 286 289 293 295 299 302 304 308 311 318 323 325 325 324 323 323 322 321 320 321 321
273 275 276 279 276 277 277 270 262 261 260 262 269 269 271 277 279 279 281 283 283 283 284 286 286 287 290 295 297 300 302 302 309 315 322 325 325 325 324 323 321 319 320 320
265 268 275 278 276 273 275 271 264 258 262 265 273 268 272 278 281 280 281 281 282 282 283 284 285 286 287 291 294 297 299 300 303 307 311 319 325 324 324 324 322 322 321 321
262 268 275 278 277 276 273 265 273 265 267 265 268 271 276 279 277 278 279 280 279 280 282 283 286 286 286 287 289 293 296 299 301 303 307 310 319 323 322 322 322 322 322 321
270 264 275 277 277 276 275 277 266 264 255 256 266 268 269 275 276 277 277 278 279 281 283 283 284 285 285 287 288 290 295 297 298 300 303 306 311 317 322 321 319 321 322 320
266 267 271 273 269 272 273 269 268 266 267 262 263 267 274 274 276 276 277 277 280 281 282 282 283 284 284 286 287 287 292 295 295 297 299 301 306 310 320 320 320 320 318 316
274 267 267 268 274 276 275 272 272 263 262 267 268 267 277 277 277 276 278 281 281 282 282 282 283 283 283 284 285 287 289 292 294 295 296 299 303 308 313 319 319 315 311 309
274 265 261 267 269 271 266 274 275 272 271 265 264 266 276 276 276 280 279 280 282 282 282 282 282 282 282 283 284 286 289 291 292 293 295 297 301 306 307 311 315 309 306 306
281 268 266 266 268 264 263 264 273 268 266 267 268 270 275 277 277 279 280 281 282 282 282 282 281 281 282 282 283 284 289 290 290 291 293 294 295 298 305 305 305 305 307 305
274 265 267 272 273 272 271 271 271 270 271 268 271 271 274 277 278 279 280 280 281 281 282 281 280 281 280 282 283 286 288 288 288 289 290 290 291 293 296 298 298 295 295 297
274 265 264 263 272 272 269 271 271 272 272 272 272 272 278 280 280 278 280 280 281 282 283 284 284 283 281 284 284 286 286 286 287 288 288 288 288 288 289 289 290 291 288 287
271 266 261 260 269 268 265 267 269 271 273 272 268 274 278 277 278 279 280 280 281 282 283 284 284 285 286 284 283 284 284 284 285 286 286 286 286 285 285 286 287 286 286 286
272 266 263 262 261 259 274 272 270 273 275 275 276 277 278 278 279 280 281 281 281 283 282 283 285 287 287 283 282 282 282 284 285 285 285 285 284 284 285 285 285 285 286 286
275 271 260 257 252 267 272 272 270 270 273 276 275 277 278 278 278 277 281 283 282 283 283 285 285 282 280 280 281 281 284 283 284 284 284 284 284 284 284 284 284 285 285 285
275 275 269 254 255 258 271 275 275 274 268 276 277 277 276 277 273 278 281 282 282 284 286 281 280 279 280 279 282 283 283 283 282 283 283 284 284 283 283 283 283 284 284 283
268 270 268 258 258 264 273 276 276 266 274 277 278 278 277 274 276 281 281 280 282 285 282 281 280 280 280 282 284 283 282 281 282 282 282 282 282 282 283 283 283 283 283 282
266 263 264 263 258 261 275 274 272 277 278 278 276 275 277 278 279 279 279 279 284 282 279 282 281 282 283 284 282 280 279 280 281 281 281 281 281 282 282 281 281 281 281 280
266 271 266 268 269 276 277 277 279 278 277 277 278 279 278 277 277 278 277 277 283 282 280 281 282 282 281 282 281 279 279 280 280 280 279 279 280 281 281 280 280 279 280 280
271 274 270 270 276 276 278 278 278 279 278 281 280 279 278 277 278 278 279 279 283 282 281 281 282 279 278 279 280 280 280 280 280 279 279 279 279 279 279 280 280 279 279 279
274 273 270 270 276 278 280 281 282 281 280 279 280 279 279 278 279 279 279 280 282 281 281 278 279 278 277 278 280 280 281 281 279 278 278 278 278 278 278 278 279 279 279 281
275 275 274 277 282 279 282 279 280 279 280 280 280 279 279 279 279 279 278 279 279 281 279 278 279 280 279 279 278 278 279 279 279 277 277 276 276 275 275 276 276 282 282 283
Wind_Speed
6 10 10 6 5 3 3 3 6 6 9 12 8 23 23 19 18 18 11 18 16 17 16 18 10 4 7 7 10 13 15 18 13 12 12 11 13 10 10 10 13 13 12 12
6 7 5 4 3 2 1 3 6 12 9 7 16 31 23 16 12 11 21 18 10 10 12 15 16 6 4 4 10 13 14 15 14 12 12 10 11 9 9 9 12 14 14 12
5 1 5 4 5 8 3 2 5 10 14 11 8 11 6 10 10 8 9 10 10 10 13 13 15 16 6 5 8 9 12 15 15 17 9 6 7 6 9 12 11 13 14 13
1 2 5 5 4 4 5 2 9 14 13 7 8 10 7 8 15 7 7 9 13 13 12 12 14 18 18 14 10 11 8 11 12 11 11 16 13 12 12 10 9 9 14 14
4 4 5 3 2 2 7 10 11 9 8 5 4 2 11 11 11 6 10 11 10 12 11 14 15 13 12 10 10 7 7 10 11 10 14 11 15 12 8 9 11 12 10 12
2 2 3 2 2 1 8 8 7 3 3 3 4 3 8 5 6 11 11 11 8 12 14 14 14 14 12 10 8 7 6 6 9 7 14 18 16 16 11 10 9 9 7 8
7 1 2 1 4 3 9 6 6 9 8 7 1 6 14 15 13 7 14 8 7 8 12 14 16 17 17 12 13 10 11 12 9 9 9 16 17 16 16 12 9 9 8 7
4 8 4 4 4 2 4 3 5 4 5 10 14 9 10 8 14 9 7 6 8 8 8 13 16 17 17 14 10 12 13 12 11 8 9 8 16 10 10 10 9 8 8 9
4 6 3 1 1 4 1 3 3 1 3 4 5 7 13 8 8 8 8 7 9 9 9 13 16 17 16 14 14 11 11 12 9 11 7 8 8 12 10 10 9 8 9 7
3 5 1 2 0 1 3 3 3 3 4 8 8 9 11 12 14 11 11 12 13 13 17 14 13 15 15 15 14 12 10 10 12 9 7 6 8 8 11 8 8 10 10 9
4 4 5 4 2 7 3 1 3 3 5 4 8 13 9 10 9 12 13 10 16 18 16 15 14 14 13 14 14 11 9 9 9 10 11 8 7 5 14 10 10 10 6 8
4 4 6 9 4 2 3 6 5 6 5 4 4 17 6 9 9 7 14 20 20 17 15 12 13 12 12 13 12 13 9 6 7 7 10 10 11 9 11 14 11 9 8 6
6 1 6 6 6 5 3 5 3 2 2 8 4 15 6 3 8 18 17 19 19 18 18 14 10 11 10 11 10 12 8 6 6 7 8 8 8 8 5 7 10 12 11 10
7 4 8 9 7 5 2 5 8 7 5 5 20 28 35 26 21 21 23 22 21 20 17 15 11 9 10 8 9 9 7 5 6 6 6 8 8 9 4 2 3 1 9 14
5 6 6 18 13 12 22 22 17 20 23 13 22 16 26 24 23 25 23 23 22 22 19 13 11 9 9 9 8 7 6 4 5 5 5 6 6 6 6 4 7 9 10 6
2 5 1 7 8 12 16 16 17 20 20 25 30 33 33 28 20 18 18 20 23 23 20 14 15 15 10 13 10 10 5 3 4 4 3 5 5 5 5 7 8 11 13 12
6 3 4 8 4 11 10 11 11 5 9 8 11 20 17 14 13 15 20 19 19 22 12 17 18 16 15 12 8 10 5 1 2 3 1 1 2 4 5 7 9 10 13 16
6 5 3 6 6 3 5 2 6 9 13 18 19 17 18 17 15 17 17 14 17 18 20 18 16 13 11 8 7 5 3 2 2 1 2 2 4 5 5 9 10 12 11 15
4 5 2 1 3 14 10 4 6 7 11 11 19 20 17 14 13 9 6 12 16 15 16 13 12 11 10 8 4 2 3 2 0 1 1 1 4 6 6 10 11 11 14 12
5 4 5 3 1 8 7 4 5 4 8 8 10 9 10 6 9 13 11 17 15 13 10 11 10 7 6 6 3 3 3 1 2 3 2 2 5 7 8 10 12 10 14 14
5 4 15 4 5 14 16 5 3 5 9 6 8 7 7 3 7 18 18 14 12 9 10 9 8 6 5 2 2 2 3 3 5 5 5 6 7 9 8 11 11 12 14 13
11 10 7 5 4 15 10 8 10 8 2 4 4 3 5 8 11 14 13 12 10 10 8 9 7 6 5 3 4 5 6 5 6 7 5 7 9 7 7 11 11 11 12 13
4 11 9 15 16 4 10 6 13 2 3 5 5 8 5 8 7 12 10 8 6 8 7 6 5 6 6 5 6 7 5 7 8 8 7 8 10 8 8 10 11 10 9 9
7 7 5 2 11 23 19 16 13 12 14 18 10 8 4 7 8 10 7 6 5 5 5 5 5 5 5 5 7 7 8 9 10 9 7 8 8 8 8 7 6 6 7 7
6 9 7 11 19 18 27 20 20 14 11 9 8 6 8 6 8 6 6 6 3 4 4 4 3 3 4 3 5 4 7 9 8 6 6 6 5 6 6 5 4 2 3 5
9 13 10 13 13 9 17 3 5 8 9 9 9 7 6 7 8 5 6 3 1 3 1 3 4 3 4 4 4 4 4 4 6 6 4 4 3 3 3 4 3 7 5 7
Wind_Direction
355 50 31 352 48 157 212 230 290 270 307 327 320 293 292 298 293 294 296 304 298 285 284 300 293 287 251 208 206 217 204 206 194 191 191 198 205 201 201 197 197 200 204 197
26 47 311 305 39 39 32 334 308 288 294 314 310 299 295 286 283 300 304 299 311 342 309 318 319 319 337 262 226 212 226 214 206 202 205 199 193 206 203 202 201 202 203 194
55 314 328 29 12 7 319 257 305 289 317 292 341 278 329 298 302 324 325 318 356 351 347 343 350 336 296 274 278 244 230 226 220 218 206 197 186 196 203 208 208 203 199 191
190 324 10 23 36 20 317 348 311 310 331 314 59 289 295 304 321 307 313 341 345 347 349 355 10 15 7 356 13 10 349 263 231 220 217 207 203 205 214 207 202 197 197 196
242 19 24 40 353 6 265 321 297 304 301 355 2 337 278 320 316 312 319 339 337 336 354 360 2 11 12 359 344 350 355 342 282 213 214 215 215 221 208 203 200 195 197 196
283 285 158 209 300 74 309 322 329 28 12 0 239 68 282 283 271 310 310 316 329 340 342 348 351 352 346 354 357 358 332 306 326 287 228 218 219 220 215 204 198 190 191 192
327 5 315 45 357 45 26 26 348 359 6 255 316 349 256 288 295 271 295 292 336 330 334 341 339 340 336 340 345 341 338 343 319 335 289 230 228 220 220 209 201 177 188 195
46 332 18 4 88 337 2 78 125 287 302 289 300 228 258 243 297 294 277 301 322 324 318 328 327 327 325 323 328 332 330 320 328 312 299 309 235 224 223 214 203 203 202 206
80 280 328 11 109 119 357 44 173 224 289 286 264 282 288 275 292 320 301 307 299 293 309 314 316 318 318 320 320 320 312 302 299 309 313 295 296 224 214 205 203 201 203 192
235 329 62 284 81 7 161 157 39 20 348 295 284 279 249 298 304 313 318 315 312 308 316 314 309 305 306 309 311 305 299 298 302 302 316 312 311 276 254 197 193 205 214 195
130 100 288 25 184 165 132 94 83 128 156 242 306 281 224 253 278 292 298 292 299 305 299 302 300 296 296 297 303 295 291 294 306 318 321 306 274 254 235 231 200 205 194 190
202 154 273 236 262 336 148 203 154 127 257 227 265 264 251 260 274 281 299 308 304 299 294 285 291 293 294 295 301 300 295 290 299 307 302 302 317 314 288 218 207 180 160 130
188 290 326 352 359 351 165 194 216 82 132 202 234 262 216 234 297 305 302 302 298 297 295 291 289 287 285 290 295 297 291 293 298 305 304 310 308 279 280 277 194 160 143 144
149 176 193 214 222 134 252 199 193 163 237 235 237 275 286 294 303 306 306 301 298 296 292 289 286 277 283 275 285 298 287 295 301 307 312 321 327 322 289 193 59 26 161 153
150 225 205 255 273 268 260 258 238 226 231 236 263 265 272 289 295 295 297 297 303 306 299 291 289 288 283 292 282 288 262 290 303 313 323 323 325 333 3 44 96 65 48 38
180 266 127 261 265 254 265 253 242 241 241 249 256 268 270 277 281 284 291 304 308 306 308 325 312 300 290 293 293 296 275 295 306 311 324 323 346 12 28 52 60 89 80 56
166 164 24 273 344 310 285 232 174 200 198 204 211 241 271 289 290 293 306 305 306 306 319 313 302 298 292 283 290 287 284 326 318 304 301 53 66 57 59 75 82 83 98 94
154 118 111 278 351 294 250 200 163 204 249 224 255 269 276 278 281 293 291 295 313 315 310 302 300 298 291 272 277 273 302 330 324 332 304 113 111 95 96 98 99 99 93 96
161 122 330 263 218 296 284 178 150 163 279 220 231 253 269 282 294 275 227 335 312 314 303 298 307 303 304 303 278 238 272 306 17 8 334 69 116 108 113 106 104 106 102 102
164 203 163 88 171 249 247 155 152 136 283 194 192 235 269 331 320 307 332 326 315 308 312 310 314 306 349 354 1 303 298 345 55 48 61 86 101 106 111 110 109 106 104 103
133 205 219 175 257 277 252 190 165 85 248 161 182 255 291 255 233 288 311 310 311 321 315 327 320 328 338 14 332 50 26 26 62 65 79 95 97 101 109 105 101 105 102 103
165 162 195 153 200 272 154 108 181 219 185 194 178 230 262 271 286 289 305 303 318 329 331 342 334 339 335 9 80 71 60 30 56 71 75 82 83 89 91 97 92 93 100 99
243 196 184 190 213 231 200 226 230 357 264 277 295 280 263 286 279 296 301 304 328 324 338 320 338 353 356 39 67 75 48 60 61 63 66 76 75 73 81 90 96 94 99 110
245 179 235 102 241 246 256 253 263 265 268 279 261 255 263 264 280 293 304 303 330 332 335 331 359 5 17 37 68 75 81 74 69 67 47 50 66 72 67 73 79 96 105 112
195 141 197 260 278 283 269 256 254 253 258 256 267 239 253 259 279 275 299 310 331 319 333 329 1 21 350 42 94 102 107 102 93 74 63 55 51 56 71 62 71 55 38 137
174 206 209 245 232 218 264 215 172 222 228 233 242 259 236 219 251 268 287 277 262 293 19 324 335 25 25 43 42 39 35 103 126 111 101 90 98 76 62 76 94 91 119 126